Location: Goettingen
(51.5300°N, 9.9433°E)
Time: 20:39:45
(UTC+02:00)

ISS - Pass Details

Date: 20 September 2021
Orbit: 419 x 423 km, 51.6° (Epoch: 20 September)

Event Time Altitude Azimuth Distance (km) Brightness Sun altitude
Rises 22:30:09 0° 269° (W) 2,367 0.7 -27.4°
Reaches altitude 10° 22:32:15 10° 270° (W) 1,503 -0.4 -27.7°
Enters shadow 22:32:51 14° 270° (W) 1,259 -0.8 -27.7°
